| time (UTC) | temp F | wind direction | speed MPH | gust MPH | rain 1hr in | rain 24hr in | rain mn in | humidity % | barometer mb |
| 20260901031503 | 84 | 165 | 3.0 | 6.0 | 0.00 | 0.00 | 0.00 | 82 | 1017.7 |
| 20260901030058 | 84 | 173 | 2.0 | 6.0 | 0.00 | 0.00 | 0.00 | 82 | 1017.7 |
| 20260901024556 | 84 | 159 | 3.0 | 5.0 | 0.00 | 0.00 | 0.00 | 82 | 1017.7 |
| 20260901023054 | 84 | 149 | 1.0 | 4.0 | 0.00 | 0.00 | 0.00 | 82 | 1017.6 |
| 20260901021552 | 85 | 175 | 1.0 | 4.0 | 0.00 | 0.00 | 0.00 | 81 | 1017.6 |
| 20260901020052 | 85 | 166 | 0.0 | 3.0 | 0.00 | 0.00 | 0.00 | 80 | 1017.3 |
| 20260901014547 | 86 | 222 | 1.0 | 3.0 | 0.00 | 0.00 | 0.00 | 80 | 1017.2 |
| 20260901013045 | 86 | 149 | 0.0 | 2.0 | 0.00 | 0.00 | 0.00 | 80 | 1017.0 |
| 20260901011543 | 87 | 178 | 0.0 | 1.0 | 0.00 | 0.00 | 0.00 | 79 | 1016.9 |
| 20260901010044 | 88 | 171 | 0.0 | 3.0 | 0.00 | 0.00 | 0.00 | 77 | 1016.8 |
| 20260901004537 | 89 | 142 | 1.0 | 5.0 | 0.00 | 0.00 | 0.00 | 76 | 1016.8 |
| 20260901003036 | 90 | 156 | 0.0 | 2.0 | 0.00 | 0.00 | 0.00 | 75 | 1016.7 |
| 20260901001533 | 91 | 166 | 0.0 | 2.0 | 0.00 | 0.00 | 0.00 | 72 | 1016.8 |
| 20260901000036 | 93 | 241 | 0.0 | 3.0 | 0.00 | 0.00 | 0.00 | 71 | 1016.7 |
| 20260831234529 | 94 | 156 | 1.0 | 4.0 | 0.00 | 0.00 | 0.00 | 68 | 1016.7 |
| 20260831233027 | 95 | 171 | 1.0 | 5.0 | 0.00 | 0.00 | 0.00 | 66 | 1016.7 |
| 20260831231523 | 96 | 202 | 0.0 | 4.0 | 0.00 | 0.00 | 0.00 | 64 | 1016.7 |
| 20260831230022 | 96 | 253 | 1.0 | 5.0 | 0.00 | 0.00 | 0.00 | 64 | 1016.7 |
| 20260831224519 | 97 | 163 | 2.0 | 5.0 | 0.00 | 0.00 | 0.00 | 63 | 1016.4 |
| 20260831223023 | 98 | 182 | 2.0 | 6.0 | 0.00 | 0.00 | 0.00 | 61 | 1016.4 |
| 20260831221519 | 99 | 308 | 0.0 | 5.0 | 0.00 | 0.00 | 0.00 | 59 | 1016.5 |
| 20260831220112 | 99 | 251 | 2.0 | 7.0 | 0.00 | 0.00 | 0.00 | 60 | 1016.6 |
| 20260831214508 | 99 | 270 | 1.0 | 5.0 | 0.00 | 0.00 | 0.00 | 60 | 1016.6 |
| 20260831213005 | 99 | 299 | 1.0 | 6.0 | 0.00 | 0.00 | 0.00 | 62 | 1016.6 |
| 20260831211602 | 99 | 171 | 1.0 | 7.0 | 0.00 | 0.00 | 0.00 | 59 | 1016.6 |
| 20260831210055 | 98 | 153 | 1.0 | 10.0 | 0.00 | 0.00 | 0.00 | 63 | 1016.6 |
| 20260831204554 | 98 | 211 | 2.0 | 7.0 | 0.00 | 0.00 | 0.00 | 63 | 1016.7 |
| 20260831203044 | 98 | 258 | 2.0 | 6.0 | 0.00 | 0.00 | 0.00 | 63 | 1016.7 |
| 20260831201539 | 97 | 354 | 1.0 | 9.0 | 0.00 | 0.00 | 0.00 | 63 | 1017.1 |
| 20260831200033 | 97 | 144 | 0.0 | 10.0 | 0.00 | 0.00 | 0.00 | 64 | 1017.3 |
| 20260831194529 | 97 | 240 | 1.0 | 6.0 | 0.00 | 0.00 | 0.00 | 65 | 1017.4 |
| 20260831193030 | 96 | 298 | 1.0 | 8.0 | 0.00 | 0.00 | 0.00 | 65 | 1017.4 |
| 20260831191515 | 96 | 259 | 0.0 | 6.0 | 0.00 | 0.00 | 0.00 | 66 | 1017.5 |
| 20260831190010 | 95 | 268 | 4.0 | 11.0 | 0.00 | 0.00 | 0.00 | 66 | 1017.7 |
| 20260831184503 | 95 | 221 | 2.0 | 6.0 | 0.00 | 0.00 | 0.00 | 68 | 1017.9 |
| 20260831183104 | 95 | 348 | 3.0 | 7.0 | 0.00 | 0.00 | 0.00 | 67 | 1018.0 |
| 20260831181608 | 94 | 246 | 2.0 | 6.0 | 0.00 | 0.00 | 0.00 | 67 | 1018.2 |
| 20260831180045 | 93 | 191 | 1.0 | 6.0 | 0.00 | 0.00 | 0.00 | 69 | 1018.5 |
| 20260831174539 | 94 | 353 | 1.0 | 6.0 | 0.00 | 0.00 | 0.00 | 69 | 1018.7 |
| 20260831173034 | 92 | 332 | 2.0 | 7.0 | 0.00 | 0.00 | 0.00 | 69 | 1018.8 |
| 20260831171528 | 92 | 270 | 2.0 | 7.0 | 0.00 | 0.00 | 0.00 | 70 | 1019.1 |
| 20260831170124 | 91 | 22 | 2.0 | 9.0 | 0.00 | 0.00 | 0.00 | 71 | 1019.3 |
| 20260831164520 | 90 | 2 | 2.0 | 14.0 | 0.00 | 0.00 | 0.00 | 71 | 1019.4 |
| 20260831163016 | 90 | 274 | 2.0 | 10.0 | 0.00 | 0.00 | 0.00 | 70 | 1019.4 |
| 20260831161517 | 90 | 240 | 3.0 | 8.0 | 0.00 | 0.00 | 0.00 | 70 | 1019.3 |
| 20260831160013 | 89 | 336 | 1.0 | 5.0 | 0.00 | 0.00 | 0.00 | 71 | 1019.4 |
| 20260831154613 | 88 | 327 | 1.0 | 6.0 | 0.00 | 0.00 | 0.00 | 73 | 1019.5 |
| 20260831153059 | 87 | 324 | 2.0 | 8.0 | 0.00 | 0.00 | 0.00 | 73 | 1019.4 |
| 20260831151556 | 87 | 256 | 3.0 | 6.0 | 0.00 | 0.00 | 0.00 | 72 | 1019.4 |
| 20260831144553 | 85 | 310 | 3.0 | 9.0 | 0.00 | 0.00 | 0.00 | 74 | 1019.4 |
| 20260831143044 | 84 | 288 | 1.0 | 9.0 | 0.00 | 0.00 | 0.00 | 75 | 1019.1 |
| 20260831141538 | 83 | 238 | 2.0 | 6.0 | 0.00 | 0.00 | 0.00 | 75 | 1019.3 |
| 20260831140035 | 82 | 265 | 0.0 | 3.0 | 0.00 | 0.00 | 0.00 | 76 | 1019.3 |
| 20260831134532 | 80 | 182 | 0.0 | 3.0 | 0.00 | 0.00 | 0.00 | 77 | 1019.2 |
| 20260831133024 | 78 | 161 | 2.0 | 5.0 | 0.00 | 0.00 | 0.00 | 78 | 1019.1 |
| 20260831131537 | 76 | 149 | 0.0 | 3.0 | 0.00 | 0.00 | 0.00 | 81 | 1019.1 |
| 20260831130032 | 74 | 156 | 2.0 | 4.0 | 0.00 | 0.00 | 0.00 | 81 | 1019.0 |
| 20260831124518 | 73 | 157 | 1.0 | 3.0 | 0.00 | 0.00 | 0.00 | 82 | 1019.0 |
| 20260831123021 | 72 | 166 | 2.0 | 4.0 | 0.00 | 0.00 | 0.00 | 83 | 1018.8 |
| 20260831121512 | 71 | 163 | 2.0 | 3.0 | 0.00 | 0.00 | 0.00 | 84 | 1018.5 |
| 20260831120009 | 0 | 0.0 | 0.0 | 0.00 | 0.00 | 0.00 | 1018.3 | ||
| 20260831114559 | 0 | 0.0 | 0.0 | 0.00 | 0.00 | 0.00 | 1018.2 | ||
| 20260831113058 | 0 | 0.0 | 0.0 | 0.00 | 0.00 | 0.00 | 1018.2 | ||
| 20260831111552 | 0 | 0.0 | 0.0 | 0.00 | 0.00 | 0.00 | 1018.0 | ||
| 20260831110043 | 0 | 0.0 | 0.0 | 0.00 | 0.00 | 0.00 | 1018.1 | ||
| 20260831104539 | 0 | 0.0 | 0.0 | 0.00 | 0.00 | 0.00 | 1018.1 | ||
| 20260831103033 | 72 | 192 | 3.0 | 5.0 | 0.00 | 0.00 | 0.00 | 82 | 1017.9 |
| 20260831101530 | 71 | 161 | 3.0 | 5.0 | 0.00 | 0.00 | 0.00 | 83 | 1017.9 |
| 20260831100041 | 72 | 152 | 2.0 | 5.0 | 0.00 | 0.00 | 0.00 | 83 | 1017.9 |
| 20260831094534 | 71 | 163 | 0.0 | 2.0 | 0.00 | 0.00 | 0.00 | 84 | 1017.9 |
| 20260831093042 | 70 | 156 | 0.0 | 2.0 | 0.00 | 0.00 | 0.00 | 86 | 1017.9 |
| 20260831091524 | 69 | 165 | 0.0 | 0.0 | 0.00 | 0.00 | 0.00 | 87 | 1017.8 |
| 20260831090020 | 70 | 165 | 0.0 | 0.0 | 0.00 | 0.00 | 0.00 | 87 | 1017.7 |
| 20260831084513 | 71 | 165 | 0.0 | 0.0 | 0.00 | 0.00 | 0.00 | 85 | 1017.6 |
| 20260831083011 | 72 | 165 | 0.0 | 2.0 | 0.00 | 0.00 | 0.00 | 83 | 1017.5 |
| 20260831081510 | 72 | 160 | 0.0 | 3.0 | 0.00 | 0.00 | 0.00 | 84 | 1017.3 |
| 20260831080005 | 72 | 163 | 0.0 | 1.0 | 0.00 | 0.00 | 0.00 | 85 | 1017.2 |
| 20260831074503 | 72 | 166 | 0.0 | 1.0 | 0.00 | 0.00 | 0.00 | 84 | 1017.3 |
| 20260831073057 | 74 | 166 | 0.0 | 2.0 | 0.00 | 0.00 | 0.00 | 82 | 1017.4 |
| 20260831071554 | 74 | 141 | 2.0 | 4.0 | 0.00 | 0.00 | 0.00 | 81 | 1017.5 |
| 20260831070049 | 75 | 162 | 2.0 | 5.0 | 0.00 | 0.00 | 0.00 | 80 | 1017.5 |
| 20260831064545 | 76 | 162 | 1.0 | 4.0 | 0.00 | 0.00 | 0.00 | 79 | 1017.6 |
| 20260831063042 | 76 | 164 | 2.0 | 7.0 | 0.00 | 0.00 | 0.00 | 78 | 1017.7 |
| 20260831061542 | 76 | 154 | 3.0 | 6.0 | 0.00 | 0.00 | 0.00 | 78 | 1017.8 |
| 20260831060038 | 76 | 153 | 0.0 | 3.0 | 0.00 | 0.00 | 0.00 | 78 | 1017.8 |
| 20260831054533 | 76 | 139 | 1.0 | 3.0 | 0.00 | 0.00 | 0.00 | 78 | 1017.7 |
| 20260831053034 | 77 | 168 | 3.0 | 6.0 | 0.00 | 0.00 | 0.00 | 77 | 1017.8 |
| 20260831051532 | 77 | 160 | 3.0 | 6.0 | 0.00 | 0.00 | 0.00 | 76 | 1017.6 |
| 20260831050024 | 78 | 157 | 1.0 | 3.0 | 0.00 | 0.00 | 0.00 | 77 | 1017.6 |
| 20260831044532 | 78 | 174 | 2.0 | 6.0 | 0.00 | 0.00 | 0.00 | 77 | 1017.5 |
| 20260831043021 | 78 | 160 | 0.0 | 3.0 | 0.00 | 0.00 | 0.00 | 77 | 1017.3 |
| 20260831041527 | 78 | 159 | 1.0 | 4.0 | 0.00 | 0.00 | 0.00 | 77 | 1017.4 |
| 20260831040020 | 79 | 145 | 2.0 | 6.0 | 0.00 | 0.00 | 0.00 | 77 | 1017.3 |
| 20260831034512 | 79 | 154 | 4.0 | 7.0 | 0.00 | 0.00 | 0.00 | 77 | 1017.2 |
| 20260831033018 | 80 | 171 | 4.0 | 8.0 | 0.00 | 0.00 | 0.00 | 78 | 1017.3 |